Torna al catalogo

CYGFM02

AttivoScienzaVLEO
NORAD 41886·PAYLOAD·🇺🇸 United States

Lanciato Dec 15, 2016 da Cape Canaveral Space Force Station

Loading…

Prossimi Passaggi (prossime 24 ore)

TLE

AggiornatoSource: Space-Track

Epoca: Sep 14, 2026, 13:25 UTC

1 41886U 16078C   26257.55965351  .00041866  00000-0  31410-3 0  9997
2 41886  34.9405 341.0893 0004256 354.8276   5.2408 15.71481807543209

Traccia CYGFM02 in tempo reale con AllMySat

Download on the App Store